This demonstration page uses our WeatherBlox Daily Observations layout. Learn more.

Left ArrowRight Arrow

38.20091, -84.87328

Hourly Observations for July 20, 2019

Temp ( °F °C ) Dew Point ( °F °C ) Humidity (%) Winds ( mph kmh ) Pressure ( in mb ) Visibility ( mi km ) Precip ( " mm )
12:53 am 00:53 Clear 77 25 73 22.8 88 88 Calm 29.98 1015 10 16 0.00 0.00
1:53 am 01:53 Clear 78 25.6 74 23.3 87 87 SW 3 6 29.96 1015 10 16 0.00 0.00
2:53 am 02:53 Clear 76 24.4 73 22.8 91 91 SW 3 6 29.96 1014 9 14 0.00 0.00
3:53 am 03:53 Clear 76 24.4 73 22.8 91 91 SSW 3 6 29.96 1015 8 13 0.00 0.00
4:53 am 04:53 Mostly Cloudy 77 25 74 23.3 90 90 Calm 29.98 1015 8 13 0.00 0.00
5:53 am 05:53 Clear 76 24.4 74 23.3 94 94 WSW 3 6 29.99 1016 8 13 0.00 0.00
6:53 am 06:53 Sunny with Mist and Fog 74 23.3 72 22.2 94 94 Calm 30.00 1016 5 8 0.00 0.00
7:53 am 07:53 Sunny 78 25.6 75 23.9 90 90 SW 3 6 30.02 1017 8 13 0.00 0.00
8:53 am 08:53 Sunny 81 27.2 76 24.4 85 85 Calm 30.01 1016 10 16 0.00 0.00
9:53 am 09:53 Sunny 85 29.4 76 24.4 75 75 NW 5 7 30.00 1016 10 16 0.00 0.00
10:46 am 10:46 Mostly Cloudy 87 30.6 75 23.9 67 67 W 7 11 29.98 1015 10 16 0.00 0.00
10:53 am 10:53 Partly Cloudy 87 30.6 75 23.9 67 67 VRB 3 6 29.99 1016 10 16 0.00 0.00
11:53 am 11:53 Mostly Sunny 88 31.1 75 23.9 66 66 SW 6 9 29.98 1015 10 16 0.00 0.00
12:53 pm 12:53 Partly Cloudy 89 31.7 73 22.8 59 59 undefined N/A 29.98 1015 10 16 0.00 0.00
1:53 pm 13:53 Mostly Sunny 92 33.3 74 23.3 56 56 SSW 9 15 29.96 1015 10 16 0.00 0.00
2:53 pm 14:53 Partly Cloudy 93 33.9 73 22.8 52 52 SW 9 15 29.96 1014 10 16 0.00 0.00
3:53 pm 15:53 Mostly Sunny 93 33.9 73 22.8 52 52 WSW 5 7 29.96 1014 10 16 0.00 0.00
4:53 pm 16:53 Sunny 94 34.4 73 22.8 51 51 SW 13 20 29.93 1014 10 16 0.00 0.00
5:53 pm 17:53 Sunny 93 33.9 73 22.8 52 52 WSW 8 13 29.93 1013 10 16 0.00 0.00
6:53 pm 18:53 Sunny 92 33.3 73 22.8 54 54 W 6 9 29.92 1013 10 16 0.00 0.00
7:53 pm 19:53 Sunny 90 32.2 74 23.3 59 59 Calm 29.93 1014 10 16 0.00 0.00
8:53 pm 20:53 Sunny 87 30.6 74 23.3 65 65 SSW 5 7 29.92 1013 10 16 0.00 0.00
9:53 pm 21:53 Clear 84 28.9 74 23.3 72 72 WSW 3 6 29.93 1014 10 16 0.00 0.00
10:53 pm 22:53 Clear 81 27.2 74 23.3 79 79 SW 3 6 29.93 1013 10 16 0.00 0.00
11:53 pm 23:53 Clear 81 27.2 74 23.3 79 79 SSW 5 7 29.94 1014 10 16 0.00 0.00

Powered by AerisWeather